www.pogodaiklimat.ru

Погода и климат >> Архив погоды >> Индия >> Уттар-Прадеш >> Ферсатгиндж


ПОГОДА в Ферсатгиндже

  • Прогноз погоды в Ферсатгиндже
  • Монитор погоды в Ферсатгиндже

АРХИВ ПОГОДЫ в Ферсатгиндже

Время (UTC), дата Ветер
(напр.,м/с)
 
Видим.   Явления Облачность Т
(С)
Тd
(С)
f
(%)
Тe
(С)
Тes
(С)
Комфортность P
(гПа)
Po
(гПа)
Тmin
(С)
Tmax
(С)
R
(мм)
R24
(мм)
S
(см)
03 16.04 СЗ 6 1000 м пыльная буря на расстоянии {метель} 6/4 750 м
[Cu hum Ac trans]
+32.0 +13.0 31 +33 +34 жарко 1008.2 995.2 +24.7 +42.1
06 16.04 З 3 1000 м пыльный позёмок 10/5 600 м
[Sc As trans]
+32.2 +16.2 38 +35 +39 очень
душно
1010.4 997.4
09 16.04 СЗ 4 2000 м мгла 10/5 600 м
[Sc As trans]
+30.2 +14.0 37 +32 +34 жарко 1009.7 996.6
12 16.04 З 3 2000 м мгла {дождь} 6/0
[Ac trans Ci fib]
+28.4 +14.5 43 +31 +31 душно 1008.8 995.6 +32.3 0.1
03 17.04 В 4 2000 м мгла {дождь} 10/5 600 м
[Sc As op]
+19.6 +18.3 92 +22 +23 комфорт 1012.3 998.7 +18.1 +32.3 2
06 17.04 штиль 0 4000 м мгла {дождь} 10/5 600 м
[Sc As op]
+26.2 +17.6 59 +30 +33 душно 1014.0 1000.7
09 17.04 В 2 4000 м мгла {дождь} 10/5 600 м
[Sc As op]
+26.2 +18.4 62 +31 +32 очень
душно
1011.5 998.2 0.2
12 17.04 В 2 4000 м мгла {дождь} 8/4 600 м
[Sc Ac trans]
+26.8 +17.2 56 +31 +31 душно 1009.2 995.9 +28.3 0.2
03 18.04 В 2 4000 м мгла ясно +25.4 +17.1 60 +29 +38 душно 1011.9 998.6 +17.7 +28.3 0.2
06 18.04 З 3 4000 м мгла 3/3 750 м
[Sc]
+30.8 +18.4 48 +36 +47 очень
душно
1011.7 998.6
09 18.04 СЗ 3 4000 м 6/6 750 м
[Cu Sc]
+33.0 +14.0 32 +34 +39 очень
жарко
1008.3 995.3
12 18.04 С 3 4000 м 4/4 750 м
[Cu Sc]
+32.4 +13.6 32 +34 +34 очень
жарко
1007.2 994.2 +33.8
03 19.04 нст 1 4000 м мгла ясно +27.4 +16.1 50 +31 +40 душно 1009.9 996.7 +17.8 +33.8
06 19.04 З 5 4000 м 1/0
[Ac trans]
+32.8 +13.3 31 +34 +44 очень
жарко
1009.6 996.6
09 19.04 С 4 4000 м 5/3 900 м
[Cu hum Ac trans]
+34.4 +12.9 27 +35 +40 очень
жарко
1006.8 993.9
12 19.04 СЗ 3 4000 м 4/1 900 м
[Cu hum Ac trans]
+34.0 +12.3 27 +34 +35 очень
жарко
1004.9 992.0 +34.8
03 20.04 нст 1 4000 м мгла ясно +28.0 +15.3 46 +31 +41 душно 1008.0 994.8 +18.3 +34.8
06 20.04 З 5 4000 м 4/3 900 м
[Cu hum Ac trans]
+34.4 +11.4 25 +34 +41 очень
жарко
1007.2 994.3
09 20.04 З 4 4000 м 5/4 900 м
[Cu hum Ac trans]
+35.6 +11.4 23 +35 +40 очень
жарко
1004.4 991.6
12 20.04 З 3 4000 м 3/1 900 м
[Cu hum Ac trans]
+35.0 +11.4 24 +35 +35 очень
жарко
1002.8 990.0 +36.0
03 21.04 ЮЗ 2 4000 м мгла ясно +28.8 +15.1 43 +31 +40 жарко 1006.2 993.1 +18.2 +36.0
06 21.04 З 4 4000 м ясно +35.6 +11.9 24 +35 +49 очень
жарко
1006.3 993.5
09 21.04 З 4 4000 м 3/1 900 м
[Cu hum Ac trans]
+36.6 +12.0 23 +36 +44 очень
жарко
1003.4 990.6
12 21.04 ЮЗ 2 4000 м мгла ясно +28.8 +15.1 43 +31 +33 жарко 1006.2 993.1 +18.2 +36.0
03 22.04 штиль 0 2000 м мгла 1/1 750 м
[Sc]
+30.0 +14.6 39 +32 +42 жарко 1006.3 993.2 +19.4 +37.6
06 22.04 штиль 0 4000 м мгла ясно +37.2 +12.5 23 +37 +65 опасность
солнечного
удара
1005.4 992.6
09 22.04 нст 2 4000 м 5/5 750 м
[Cu Sc]
+38.6 +10.7 19 +38 +45 очень
жарко
1002.3 989.6
12 22.04 С 2 4000 м 3/3 750 м
[Sc]
+37.8 +13.0 23 +38 +39 очень
жарко
1001.3 988.6 +39.4

 

Местоположение метеостанции Ферсатгиндж (Уттар-Прадеш, Индия): широта 26.25 долгота 81.37 высота над уровнем моря 116 м.

В архиве по умолчанию представлена погода в Ферсатгиндже за последнюю неделю. Архивные данные за месяц целиком и за предыдущие месяцы, начиная с января 2011 года, Вы можете получить, выбрав интересующий диапазон дат из раскрывающегося списка и нажав кнопку "Ввод!".


*Определитесь, кто Вы:
робот инопланетянин человек

Внимание! Время в таблицах - всемирное. Для получения местного времени необходимо прибавить поправку, которая равна 5.5 ч.

Смотрите также архив погоды в соседних городах и на ближайших метеорологических станциях:

Погода в Султанпуре (Уттар-Прадеш, Индия) (70 км)
Погода в Лакхнау (Уттар-Прадеш, Индия) (74 км)
Погода в Аллахабаде (Уттар-Прадеш, Индия) (96 км)
Погода в Хамирпуре (Уттар-Прадеш, Индия) (126 км)
Погода в Банде (Уттар-Прадеш, Индия) (132 км)
Погода в Бахрайче (Уттар-Прадеш, Индия) (149 км)
Погода в Варанаси аэропорту (Уттар-Прадеш, Индия) (174 км)
Погода в Реве (Мадхья-Прадеш, Индия) (191 км)
Погода в Сатне (Мадхья-Прадеш, Индия) (195 км)
Погода в Варанаси (Уттар-Прадеш, Индия) (196 км)

Пояснения к столбцам:

Ветер - указаны скорость ветра в м/с - средняя за 10 мин, порывы в срок и между сроками (в фигурных скобках) и направление, откуда дует ветер: С - северный, СВ - северо-восточный, В - восточный, ЮВ - юго-восточный, Ю - южный, ЮЗ - юго-западный, З - западный, СЗ - северо-западный.
Видимость - горизонтальная дальность видимости в метрах или километрах. При видимости от 1 до 10 км при отсутствии осадков обычно наблюдается дымка, при ухудшении видимости до 1 км и менее - туман. В сухую погоду видимость может ухудшаться дымом, пылью или мглою.
Явления - указаны атмосферные явления, наблюдавшиеся в срок или в последний час перед сроком; фигурными скобками обозначены явления, наблюдавшиеся между сроками (за 1-3 часа до срока); квадратными скобками обозначены град или гололедные отложения с указанием их диаметра в мм.
Облачность - указаны через наклонную черту общая и нижняя облачность в баллах и высота нижней границы облаков в метрах; квадратными скобками обозначены формы облаков: Ci - перистые, Cs - перисто-слоистые, Cc - перисто-кучевые, Ac - высококучевые, As - высокослоистые, Sc - слоисто-кучевые, Ns - слоисто-дождевые, Cu - кучевые, Cb - кучево-дождевые. Подробнее классификацию облаков см. в Атласе облаков (PDF).
T - Температура воздуха - температура, измеренная на высоте 2 м над землей.
Td - Температура точки росы - температура, при понижении до которой содержащийся в воздухе водяной пар достигнет насыщения.
f - Относительная влажность воздуха - влажноcть воздуха, измеренная на высоте 2 м над землей.
Te - Эффективная температура - температура, которую ощущает одетый по сезону человек в тени. Характеристика душности погоды. При расчете учитывается влияние влажности воздуха и скорости ветра на теплоощущения человека.
Tes - Эффективная температура на солнце - температура, которую ощущает человек, с поправкой на солнечный нагрев. Характеристика знойности погоды. Зависит от высоты солнца над горизонтом, облачности и скорости ветра. Ночью, в пасмурную погоду, а также при ветре 12 м/с и более поправка равна нулю.
P - Атмосферное давление - приведенное к уровню моря атмосферное давление.
Po - Атмосферное давление - измеренное на уровне метеостанции атмосферное давление.
Tmin - Минимальная температура - минимум температуры воздуха на высоте 2 м над землей.
Tmax - Максимальная температура - максимум температуры воздуха на высоте 2 м над землей.
R - Количество осадков - Количество выпавших осадков за период времени, мм. При наведении курсора мыши на число - период времени, за который выпало указанное количество осадков.
R24 - Количество осадков - Количество выпавших осадков за 24 часа, мм.
S - Снежный покров - Высота снежного покрова, см. При наведении курсора мыши на число - состояние снежного покрова и степень покрытия местности в баллах.